Time,TemperatureF,DewpointF,PressureIn,WindDirection,WindDirectionDegrees,WindSpeedMPH,WindSpeedGustMPH,Humidity,HourlyPrecipIn,Conditions,Clouds,dailyrainin,SoftwareType,DateUTC
2013-10-06 00:00:00,66.0,63.9,30.09,SW,221,0.0,1.0,93,0.00,,---,0.00,VWS V14.01,2013-10-06 04:00:00,
2013-10-06 00:01:00,66.0,63.9,30.09,SW,221,0.0,1.0,93,0.00,,---,0.00,VWS V14.01,2013-10-06 04:01:00,
2013-10-06 00:02:00,66.0,63.9,30.09,SW,221,0.0,0.0,93,0.00,,---,0.00,VWS V14.01,2013-10-06 04:02:00,
2013-10-06 00:07:00,65.9,63.8,30.09,SE,144,0.0,2.0,93,0.00,,---,0.00,VWS V14.01,2013-10-06 04:07:00,
2013-10-06 00:12:00,65.9,63.8,30.09,SE,141,0.0,2.0,93,0.00,,---,0.00,VWS V14.01,2013-10-06 04:12:00,
2013-10-06 00:17:00,65.8,63.7,30.09,West,276,0.0,2.0,93,0.00,,---,0.00,VWS V14.01,2013-10-06 04:17:00,
2013-10-06 00:22:00,65.8,63.7,30.09,West,276,0.0,2.0,93,0.00,,---,0.00,VWS V14.01,2013-10-06 04:22:00,
2013-10-06 00:27:00,65.8,63.7,30.09,West,274,0.0,2.0,93,0.00,,---,0.00,VWS V14.01,2013-10-06 04:27:00,
2013-10-06 00:30:00,65.7,63.6,30.09,SW,226,0.0,2.0,93,0.00,,---,0.00,VWS V14.01,2013-10-06 04:30:00,
2013-10-06 00:32:00,65.7,63.9,30.09,SW,225,0.0,0.0,94,0.00,,---,0.00,VWS V14.01,2013-10-06 04:32:00,
2013-10-06 00:37:00,65.7,63.9,30.08,SW,224,0.0,0.0,94,0.00,,---,0.00,VWS V14.01,2013-10-06 04:37:00,
2013-10-06 00:42:00,65.6,63.8,30.08,SW,226,0.0,0.0,94,0.00,,---,0.00,VWS V14.01,2013-10-06 04:42:00,
2013-10-06 00:47:00,65.6,63.8,30.08,SW,226,0.0,1.0,94,0.00,,---,0.00,VWS V14.01,2013-10-06 04:47:00,
2013-10-06 00:52:00,65.6,63.8,30.08,SW,226,0.0,1.0,94,0.00,,---,0.00,VWS V14.01,2013-10-06 04:52:00,
2013-10-06 00:57:00,65.6,63.8,30.08,SW,225,0.0,1.0,94,0.00,,---,0.00,VWS V14.01,2013-10-06 04:57:00,
2013-10-06 01:00:00,65.6,63.8,30.09,SW,227,0.0,1.0,94,0.00,,---,0.00,VWS V14.01,2013-10-06 05:00:00,
2013-10-06 01:01:00,65.6,63.8,30.08,SW,226,0.0,0.0,94,0.00,,---,0.00,VWS V14.01,2013-10-06 05:01:00,
2013-10-06 01:06:00,65.6,63.8,30.08,SW,226,0.0,0.0,94,0.00,,---,0.00,VWS V14.01,2013-10-06 05:06:00,
2013-10-06 01:11:00,65.6,63.8,30.08,SE,141,0.0,1.0,94,0.00,,---,0.00,VWS V14.01,2013-10-06 05:11:00,
2013-10-06 01:16:00,65.5,63.7,30.08,SSW,205,0.0,1.0,94,0.00,,---,0.00,VWS V14.01,2013-10-06 05:16:00,
2013-10-06 01:21:00,65.5,63.7,30.08,SSW,207,0.0,1.0,94,0.00,,---,0.00,VWS V14.01,2013-10-06 05:21:00,
2013-10-06 01:26:00,65.6,63.8,30.09,SSW,208,0.0,1.0,94,0.00,,---,0.00,VWS V14.01,2013-10-06 05:26:00,
2013-10-06 01:30:00,65.6,63.8,30.08,SSW,206,0.0,1.0,94,0.00,,---,0.00,VWS V14.01,2013-10-06 05:30:00,
2013-10-06 01:31:00,65.6,63.8,30.08,SSW,205,0.0,0.0,94,0.00,,---,0.00,VWS V14.01,2013-10-06 05:31:00,
2013-10-06 01:36:00,65.6,63.8,30.09,SSW,208,0.0,0.0,94,0.00,,---,0.00,VWS V14.01,2013-10-06 05:36:00,
2013-10-06 01:41:00,65.6,63.8,30.08,SSW,207,0.0,1.0,94,0.00,,---,0.00,VWS V14.01,2013-10-06 05:41:00,
2013-10-06 01:46:00,65.6,63.8,30.09,SSW,208,0.0,1.0,94,0.00,,---,0.00,VWS V14.01,2013-10-06 05:46:00,
2013-10-06 01:51:00,65.6,63.5,30.08,SSW,211,0.0,1.0,93,0.00,,---,0.00,VWS V14.01,2013-10-06 05:51:00,
2013-10-06 01:56:00,65.5,63.4,30.08,South,181,1.0,1.0,93,0.00,,---,0.00,VWS V14.01,2013-10-06 05:56:00,
2013-10-06 02:00:00,65.5,63.7,30.09,South,187,0.0,1.0,94,0.00,,---,0.00,VWS V14.01,2013-10-06 06:00:00,
2013-10-06 02:01:00,65.5,63.7,30.08,South,187,0.0,0.0,94,0.00,,---,0.00,VWS V14.01,2013-10-06 06:01:00,
2013-10-06 02:06:00,65.5,63.7,30.08,South,187,0.0,0.0,94,0.00,,---,0.00,VWS V14.01,2013-10-06 06:06:00,
2013-10-06 02:11:00,65.5,63.7,30.08,South,189,0.0,0.0,94,0.00,,---,0.00,VWS V14.01,2013-10-06 06:11:00,
2013-10-06 02:16:00,65.5,63.7,30.08,South,187,0.0,0.0,94,0.00,,---,0.00,VWS V14.01,2013-10-06 06:16:00,
2013-10-06 02:21:00,65.5,63.7,30.08,South,187,0.0,1.0,94,0.00,,---,0.00,VWS V14.01,2013-10-06 06:21:00,
2013-10-06 02:26:00,65.4,63.6,30.07,SW,233,0.0,1.0,94,0.00,,---,0.00,VWS V14.01,2013-10-06 06:26:00,
2013-10-06 02:30:00,65.4,63.6,30.08,SW,233,0.0,1.0,94,0.00,,---,0.00,VWS V14.01,2013-10-06 06:30:00,
2013-10-06 02:31:00,65.4,63.6,30.08,SW,233,0.0,0.0,94,0.00,,---,0.00,VWS V14.01,2013-10-06 06:31:00,
2013-10-06 02:36:00,65.4,63.6,30.08,SW,232,0.0,0.0,94,0.00,,---,0.00,VWS V14.01,2013-10-06 06:36:00,
2013-10-06 02:41:00,65.4,63.6,30.07,WSW,246,0.0,1.0,94,0.00,,---,0.00,VWS V14.01,2013-10-06 06:41:00,
2013-10-06 02:46:00,65.3,63.5,30.07,ESE,119,0.0,1.0,94,0.00,,---,0.00,VWS V14.01,2013-10-06 06:46:00,
2013-10-06 02:51:00,65.2,63.4,30.07,ESE,118,0.0,1.0,94,0.00,,---,0.00,VWS V14.01,2013-10-06 06:51:00,
2013-10-06 02:56:00,65.2,63.4,30.07,ESE,118,0.0,1.0,94,0.00,,---,0.00,VWS V14.01,2013-10-06 06:56:00,
2013-10-06 03:00:00,65.2,63.4,30.07,ESE,118,0.0,1.0,94,0.00,,---,0.00,VWS V14.01,2013-10-06 07:00:00,
2013-10-06 03:01:00,65.2,63.4,30.07,ESE,119,0.0,0.0,94,0.00,,---,0.00,VWS V14.01,2013-10-06 07:01:00,
2013-10-06 03:06:00,65.2,63.4,30.07,ESE,118,0.0,0.0,94,0.00,,---,0.00,VWS V14.01,2013-10-06 07:06:00,
2013-10-06 03:11:00,65.1,63.3,30.07,South,176,0.0,1.0,94,0.00,,---,0.00,VWS V14.01,2013-10-06 07:11:00,
2013-10-06 03:16:00,65.1,63.6,30.06,South,175,0.0,1.0,95,0.00,,---,0.00,VWS V14.01,2013-10-06 07:16:00,
2013-10-06 03:21:00,65.1,63.6,30.06,South,175,0.0,1.0,95,0.00,,---,0.00,VWS V14.01,2013-10-06 07:21:00,
2013-10-06 03:26:00,65.1,63.6,30.06,South,176,0.0,1.0,95,0.00,,---,0.00,VWS V14.01,2013-10-06 07:26:00,
2013-10-06 03:30:00,65.0,63.5,30.06,South,174,0.0,1.0,95,0.00,,---,0.00,VWS V14.01,2013-10-06 07:30:00,
2013-10-06 03:31:00,65.0,63.5,30.06,South,175,0.0,0.0,95,0.00,,---,0.00,VWS V14.01,2013-10-06 07:31:00,
2013-10-06 03:36:00,65.0,63.5,30.06,SSW,203,0.0,0.0,95,0.00,,---,0.00,VWS V14.01,2013-10-06 07:36:00,
2013-10-06 03:41:00,65.0,63.5,30.06,SSW,203,0.0,0.0,95,0.00,,---,0.00,VWS V14.01,2013-10-06 07:41:00,
2013-10-06 03:46:00,65.0,63.5,30.06,SSW,203,0.0,0.0,95,0.00,,---,0.00,VWS V14.01,2013-10-06 07:46:00,
2013-10-06 03:51:00,65.0,63.5,30.06,SSW,203,0.0,0.0,95,0.00,,---,0.00,VWS V14.01,2013-10-06 07:51:00,
2013-10-06 03:56:00,65.0,63.5,30.06,SSW,203,0.0,0.0,95,0.00,,---,0.00,VWS V14.01,2013-10-06 07:56:00,
2013-10-06 04:00:00,65.0,63.5,30.06,SSW,203,0.0,0.0,95,0.00,,---,0.00,VWS V14.01,2013-10-06 08:00:00,
2013-10-06 04:01:00,65.0,63.5,30.06,SSW,203,0.0,0.0,95,0.00,,---,0.00,VWS V14.01,2013-10-06 08:01:00,
2013-10-06 04:06:00,65.0,63.5,30.06,SSW,203,0.0,0.0,95,0.00,,---,0.00,VWS V14.01,2013-10-06 08:06:00,
2013-10-06 04:11:00,65.0,63.8,30.06,SSW,204,0.0,0.0,96,0.00,,---,0.00,VWS V14.01,2013-10-06 08:11:00,
2013-10-06 04:16:00,65.0,63.8,30.06,SSW,203,0.0,0.0,96,0.00,,---,0.00,VWS V14.01,2013-10-06 08:16:00,
2013-10-06 04:21:00,65.0,63.8,30.06,SSW,204,0.0,0.0,96,0.00,,---,0.00,VWS V14.01,2013-10-06 08:21:00,
2013-10-06 04:26:00,65.0,63.8,30.06,SSW,210,0.0,0.0,96,0.00,,---,0.00,VWS V14.01,2013-10-06 08:26:00,
2013-10-06 04:30:00,64.9,63.7,30.06,SSW,210,0.0,0.0,96,0.00,,---,0.00,VWS V14.01,2013-10-06 08:30:00,
2013-10-06 04:31:00,64.9,63.7,30.06,SSW,210,0.0,0.0,96,0.00,,---,0.00,VWS V14.01,2013-10-06 08:31:00,
2013-10-06 04:36:00,64.9,63.7,30.06,SSW,210,0.0,0.0,96,0.00,,---,0.00,VWS V14.01,2013-10-06 08:36:00,
2013-10-06 04:41:00,64.9,63.7,30.07,SSW,210,0.0,0.0,96,0.00,,---,0.00,VWS V14.01,2013-10-06 08:41:00,
2013-10-06 04:46:00,64.9,63.7,30.06,SSW,210,0.0,0.0,96,0.00,,---,0.00,VWS V14.01,2013-10-06 08:46:00,
2013-10-06 04:51:00,64.9,63.7,30.07,SSW,210,0.0,0.0,96,0.00,,---,0.00,VWS V14.01,2013-10-06 08:51:00,
2013-10-06 04:56:00,64.8,63.6,30.07,SSW,210,0.0,0.0,96,0.00,,---,0.00,VWS V14.01,2013-10-06 08:56:00,
2013-10-06 05:00:00,64.8,63.6,30.07,SSW,210,0.0,0.0,96,0.00,,---,0.00,VWS V14.01,2013-10-06 09:00:00,
2013-10-06 05:01:00,64.8,63.6,30.07,SSW,210,0.0,0.0,96,0.00,,---,0.00,VWS V14.01,2013-10-06 09:01:00,
2013-10-06 05:06:00,64.8,63.6,30.07,SSW,210,0.0,0.0,96,0.00,,---,0.00,VWS V14.01,2013-10-06 09:06:00,
2013-10-06 05:09:00,64.8,63.6,30.07,SSW,210,0.0,0.0,96,0.00,,---,0.00,VWS V14.01,2013-10-06 09:09:00,
2013-10-06 05:14:00,64.7,63.5,30.07,SSW,210,0.0,0.0,96,0.00,,---,0.00,VWS V14.01,2013-10-06 09:14:00,
2013-10-06 05:19:00,64.7,63.5,30.07,SSW,210,0.0,0.0,96,0.00,,---,0.00,VWS V14.01,2013-10-06 09:19:00,
2013-10-06 05:24:00,64.7,63.5,30.07,WSW,251,0.0,0.0,96,0.00,,---,0.00,VWS V14.01,2013-10-06 09:24:00,
2013-10-06 05:29:00,64.7,63.5,30.07,WSW,252,0.0,0.0,96,0.00,,---,0.00,VWS V14.01,2013-10-06 09:29:00,
2013-10-06 05:30:00,64.6,63.4,30.07,WSW,252,0.0,0.0,96,0.00,,---,0.00,VWS V14.01,2013-10-06 09:30:00,
2013-10-06 05:34:00,64.6,63.4,30.07,WSW,251,0.0,0.0,96,0.00,,---,0.00,VWS V14.01,2013-10-06 09:34:00,
2013-10-06 05:39:00,64.6,63.7,30.07,WSW,251,0.0,0.0,97,0.00,,---,0.00,VWS V14.01,2013-10-06 09:39:00,
2013-10-06 05:44:00,64.6,63.7,30.08,WSW,251,0.0,0.0,97,0.00,,---,0.00,VWS V14.01,2013-10-06 09:44:00,
2013-10-06 05:49:00,64.6,63.7,30.08,WSW,252,0.0,0.0,97,0.00,,---,0.00,VWS V14.01,2013-10-06 09:49:00,
2013-10-06 05:54:00,64.6,63.7,30.07,WSW,252,0.0,0.0,97,0.00,,---,0.00,VWS V14.01,2013-10-06 09:54:00,
2013-10-06 05:59:00,64.5,63.6,30.07,WSW,252,0.0,0.0,97,0.00,,---,0.00,VWS V14.01,2013-10-06 09:59:00,
2013-10-06 06:00:00,64.5,63.6,30.07,WSW,252,0.0,0.0,97,0.00,,---,0.00,VWS V14.01,2013-10-06 10:00:00,
2013-10-06 06:04:00,64.5,63.6,30.07,WSW,252,0.0,0.0,97,0.00,,---,0.00,VWS V14.01,2013-10-06 10:04:00,
2013-10-06 06:09:00,64.5,63.6,30.07,WSW,252,0.0,0.0,97,0.00,,---,0.00,VWS V14.01,2013-10-06 10:09:00,
2013-10-06 06:14:00,64.5,63.6,30.07,WSW,252,0.0,0.0,97,0.00,,---,0.00,VWS V14.01,2013-10-06 10:14:00,
2013-10-06 06:19:00,64.5,63.6,30.07,WSW,252,0.0,0.0,97,0.00,,---,0.00,VWS V14.01,2013-10-06 10:19:00,
2013-10-06 06:24:00,64.5,63.6,30.07,WSW,252,0.0,0.0,97,0.00,,---,0.00,VWS V14.01,2013-10-06 10:24:00,
2013-10-06 06:29:00,64.4,63.5,30.07,WSW,251,0.0,0.0,97,0.00,,---,0.00,VWS V14.01,2013-10-06 10:29:00,
2013-10-06 06:30:00,64.4,63.5,30.07,WSW,252,0.0,0.0,97,0.00,,---,0.00,VWS V14.01,2013-10-06 10:30:00,
2013-10-06 06:34:00,64.4,63.5,30.07,WSW,252,0.0,0.0,97,0.00,,---,0.00,VWS V14.01,2013-10-06 10:34:00,
2013-10-06 06:39:00,64.4,63.5,30.07,WSW,252,0.0,0.0,97,0.00,,---,0.00,VWS V14.01,2013-10-06 10:39:00,
2013-10-06 06:44:00,64.4,63.5,30.07,WSW,252,0.0,0.0,97,0.00,,---,0.00,VWS V14.01,2013-10-06 10:44:00,
2013-10-06 06:49:00,64.4,63.5,30.08,WSW,252,0.0,0.0,97,0.00,,---,0.00,VWS V14.01,2013-10-06 10:49:00,
2013-10-06 06:54:00,64.4,63.5,30.08,WSW,252,0.0,0.0,97,0.00,,---,0.00,VWS V14.01,2013-10-06 10:54:00,
2013-10-06 06:59:00,64.3,63.4,30.08,WSW,251,0.0,0.0,97,0.00,,---,0.00,VWS V14.01,2013-10-06 10:59:00,
2013-10-06 07:00:00,64.3,63.4,30.08,WSW,252,0.0,0.0,97,0.00,,---,0.00,VWS V14.01,2013-10-06 11:00:00,
2013-10-06 07:04:00,64.3,63.4,30.08,WSW,252,0.0,0.0,97,0.00,,---,0.00,VWS V14.01,2013-10-06 11:04:00,
2013-10-06 07:09:00,64.3,63.4,30.08,NW,319,0.0,0.0,97,0.00,,---,0.00,VWS V14.01,2013-10-06 11:09:00,
2013-10-06 07:14:00,64.2,63.3,30.08,NW,321,0.0,0.0,97,0.00,,---,0.00,VWS V14.01,2013-10-06 11:14:00,
2013-10-06 07:19:00,64.2,63.3,30.08,NW,321,0.0,0.0,97,0.00,,---,0.00,VWS V14.01,2013-10-06 11:19:00,
2013-10-06 07:24:00,64.2,63.3,30.08,NW,320,0.0,0.0,97,0.00,,---,0.00,VWS V14.01,2013-10-06 11:24:00,
2013-10-06 07:28:00,64.2,63.3,30.08,NW,325,0.0,0.0,97,0.00,,---,0.00,VWS V14.01,2013-10-06 11:28:00,
2013-10-06 07:30:00,64.2,63.3,30.08,NW,325,0.0,0.0,97,0.00,,---,0.00,VWS V14.01,2013-10-06 11:30:00,
2013-10-06 07:33:00,64.2,63.3,30.08,NW,325,0.0,0.0,97,0.00,,---,0.00,VWS V14.01,2013-10-06 11:33:00,
2013-10-06 07:38:00,64.2,63.3,30.08,NW,325,0.0,0.0,97,0.00,,---,0.00,VWS V14.01,2013-10-06 11:38:00,
2013-10-06 07:43:00,64.2,63.3,30.08,North,352,0.0,1.0,97,0.00,,---,0.00,VWS V14.01,2013-10-06 11:43:00,
2013-10-06 07:48:00,64.2,63.6,30.09,North,352,0.0,1.0,98,0.00,,---,0.00,VWS V14.01,2013-10-06 11:48:00,
2013-10-06 07:53:00,64.2,63.6,30.09,North,352,0.0,1.0,98,0.00,,---,0.00,VWS V14.01,2013-10-06 11:53:00,
2013-10-06 07:58:00,64.2,63.6,30.09,North,352,0.0,1.0,98,0.00,,---,0.00,VWS V14.01,2013-10-06 11:58:00,
2013-10-06 08:00:00,64.3,63.7,30.09,North,351,0.0,1.0,98,0.00,,---,0.00,VWS V14.01,2013-10-06 12:00:00,
2013-10-06 08:03:00,64.3,63.7,30.09,North,352,0.0,0.0,98,0.00,,---,0.00,VWS V14.01,2013-10-06 12:03:00,
2013-10-06 08:08:00,64.3,63.7,30.09,North,351,0.0,0.0,98,0.00,,---,0.00,VWS V14.01,2013-10-06 12:08:00,
2013-10-06 08:13:00,64.3,63.7,30.09,North,352,0.0,0.0,98,0.01,,---,0.01,VWS V14.01,2013-10-06 12:13:00,
2013-10-06 08:18:00,64.3,63.7,30.09,North,352,0.0,1.0,98,0.01,,---,0.01,VWS V14.01,2013-10-06 12:18:00,
2013-10-06 08:23:00,64.3,63.7,30.09,North,350,0.0,1.0,98,0.01,,---,0.01,VWS V14.01,2013-10-06 12:23:00,
2013-10-06 08:28:00,64.3,63.7,30.09,North,350,0.0,1.0,98,0.01,,---,0.01,VWS V14.01,2013-10-06 12:28:00,
2013-10-06 08:30:00,64.4,63.8,30.10,North,349,0.0,1.0,98,0.01,,---,0.01,VWS V14.01,2013-10-06 12:30:00,
2013-10-06 08:33:00,64.4,63.8,30.10,North,350,0.0,0.0,98,0.01,,---,0.01,VWS V14.01,2013-10-06 12:33:00,
2013-10-06 08:38:00,64.5,63.9,30.09,North,350,0.0,0.0,98,0.01,,---,0.01,VWS V14.01,2013-10-06 12:38:00,
2013-10-06 08:43:00,64.4,63.8,30.10,North,350,0.0,0.0,98,0.01,,---,0.01,VWS V14.01,2013-10-06 12:43:00,
2013-10-06 08:48:00,64.4,63.8,30.10,North,350,0.0,0.0,98,0.01,,---,0.01,VWS V14.01,2013-10-06 12:48:00,
2013-10-06 08:53:00,64.4,63.8,30.10,North,350,0.0,0.0,98,0.01,,---,0.01,VWS V14.01,2013-10-06 12:53:00,
2013-10-06 08:58:00,64.5,63.9,30.10,North,350,0.0,1.0,98,0.01,,---,0.01,VWS V14.01,2013-10-06 12:58:00,
2013-10-06 09:00:00,64.5,63.9,30.10,North,350,0.0,1.0,98,0.01,,---,0.01,VWS V14.01,2013-10-06 13:00:00,
2013-10-06 09:03:00,64.5,63.9,30.10,North,349,0.0,1.0,98,0.01,,---,0.01,VWS V14.01,2013-10-06 13:03:00,
2013-10-06 09:08:00,64.5,63.9,30.10,North,350,0.0,1.0,98,0.01,,---,0.01,VWS V14.01,2013-10-06 13:08:00,
2013-10-06 09:13:00,64.6,64.0,30.10,North,350,0.0,1.0,98,0.01,,---,0.01,VWS V14.01,2013-10-06 13:13:00,
2013-10-06 09:18:00,64.6,64.0,30.11,North,352,1.0,1.0,98,0.01,,---,0.01,VWS V14.01,2013-10-06 13:18:00,
2013-10-06 09:23:00,64.5,63.9,30.11,North,352,0.0,1.0,98,0.01,,---,0.01,VWS V14.01,2013-10-06 13:23:00,
2013-10-06 09:28:00,64.6,64.0,30.11,North,356,0.0,1.0,98,0.01,,---,0.01,VWS V14.01,2013-10-06 13:28:00,
2013-10-06 09:30:00,64.6,64.0,30.11,North,356,0.0,1.0,98,0.01,,---,0.01,VWS V14.01,2013-10-06 13:30:00,
2013-10-06 09:33:00,64.6,64.0,30.10,North,354,0.0,0.0,98,0.00,,---,0.01,VWS V14.01,2013-10-06 13:33:00,
2013-10-06 09:38:00,64.6,64.0,30.11,NW,323,0.0,0.0,98,0.00,,---,0.01,VWS V14.01,2013-10-06 13:38:00,
2013-10-06 09:43:00,64.6,64.0,30.11,ESE,118,0.0,1.0,98,0.00,,---,0.01,VWS V14.01,2013-10-06 13:43:00,
2013-10-06 09:48:00,64.6,64.0,30.11,ESE,115,0.0,1.0,98,0.00,,---,0.01,VWS V14.01,2013-10-06 13:48:00,
2013-10-06 09:53:00,64.5,63.9,30.11,ENE,72,0.0,1.0,98,0.00,,---,0.01,VWS V14.01,2013-10-06 13:53:00,
2013-10-06 09:58:00,64.5,63.9,30.10,ENE,72,0.0,1.0,98,0.00,,---,0.01,VWS V14.01,2013-10-06 13:58:00,
2013-10-06 10:00:00,64.5,63.9,30.10,ENE,72,0.0,1.0,98,0.00,,---,0.01,VWS V14.01,2013-10-06 14:00:00,
2013-10-06 10:03:00,64.5,63.9,30.11,NNE,26,0.0,0.0,98,0.00,,---,0.01,VWS V14.01,2013-10-06 14:03:00,
2013-10-06 10:08:00,64.5,63.9,30.11,NNE,26,0.0,0.0,98,0.00,,---,0.01,VWS V14.01,2013-10-06 14:08:00,
2013-10-06 10:13:00,64.5,63.9,30.11,ESE,115,0.0,1.0,98,0.00,,---,0.01,VWS V14.01,2013-10-06 14:13:00,
2013-10-06 10:18:00,64.6,64.0,30.11,ESE,115,0.0,1.0,98,0.00,,---,0.01,VWS V14.01,2013-10-06 14:18:00,
2013-10-06 10:23:00,64.6,64.0,30.11,ESE,115,0.0,1.0,98,0.00,,---,0.01,VWS V14.01,2013-10-06 14:23:00,
2013-10-06 10:28:00,64.6,64.0,30.11,ESE,115,0.0,1.0,98,0.00,,---,0.01,VWS V14.01,2013-10-06 14:28:00,
2013-10-06 10:30:00,64.7,64.1,30.11,ESE,114,0.0,1.0,98,0.00,,---,0.01,VWS V14.01,2013-10-06 14:30:00,
2013-10-06 10:33:00,64.7,64.1,30.11,ENE,65,1.0,1.0,98,0.00,,---,0.01,VWS V14.01,2013-10-06 14:33:00,
2013-10-06 10:38:00,64.7,64.1,30.11,SE,124,0.0,3.0,98,0.00,,---,0.01,VWS V14.01,2013-10-06 14:38:00,
2013-10-06 10:43:00,64.8,64.2,30.11,West,259,1.0,3.0,98,0.00,,---,0.01,VWS V14.01,2013-10-06 14:43:00,
2013-10-06 10:48:00,64.8,64.2,30.11,West,259,0.0,3.0,98,0.00,,---,0.01,VWS V14.01,2013-10-06 14:48:00,
2013-10-06 10:53:00,64.8,64.2,30.11,NW,323,0.0,3.0,98,0.00,,---,0.01,VWS V14.01,2013-10-06 14:53:00,
2013-10-06 10:58:00,64.8,64.2,30.11,NE,44,0.0,3.0,98,0.00,,---,0.01,VWS V14.01,2013-10-06 14:58:00,
2013-10-06 11:00:00,64.8,64.2,30.11,NE,44,0.0,3.0,98,0.00,,---,0.01,VWS V14.01,2013-10-06 15:00:00,
2013-10-06 11:03:00,64.8,64.2,30.11,NE,44,0.0,1.0,98,0.00,,---,0.01,VWS V14.01,2013-10-06 15:03:00,
2013-10-06 11:08:00,64.8,64.2,30.11,NNE,30,0.0,1.0,98,0.00,,---,0.01,VWS V14.01,2013-10-06 15:08:00,
2013-10-06 11:13:00,64.9,64.3,30.11,NNE,30,0.0,1.0,98,0.00,,---,0.01,VWS V14.01,2013-10-06 15:13:00,
2013-10-06 11:18:00,64.9,64.3,30.11,SSE,150,0.0,1.0,98,0.00,,---,0.01,VWS V14.01,2013-10-06 15:18:00,
2013-10-06 11:23:00,64.9,64.3,30.11,SSE,149,0.0,1.0,98,0.00,,---,0.01,VWS V14.01,2013-10-06 15:23:00,
2013-10-06 11:28:00,64.9,64.3,30.11,SSE,149,0.0,1.0,98,0.00,,---,0.01,VWS V14.01,2013-10-06 15:28:00,
2013-10-06 11:30:00,64.9,64.3,30.11,SSE,149,0.0,1.0,98,0.00,,---,0.01,VWS V14.01,2013-10-06 15:30:00,
2013-10-06 11:33:00,64.9,64.3,30.11,SSE,150,0.0,0.0,98,0.00,,---,0.01,VWS V14.01,2013-10-06 15:33:00,
2013-10-06 11:38:00,65.0,64.4,30.11,SSE,148,0.0,0.0,98,0.00,,---,0.01,VWS V14.01,2013-10-06 15:38:00,
2013-10-06 11:43:00,65.0,64.4,30.11,SSE,149,0.0,0.0,98,0.00,,---,0.01,VWS V14.01,2013-10-06 15:43:00,
2013-10-06 11:48:00,65.0,64.4,30.11,ENE,63,0.0,2.0,98,0.00,,---,0.01,VWS V14.01,2013-10-06 15:48:00,
2013-10-06 11:53:00,65.0,64.4,30.10,NE,40,0.0,2.0,98,0.00,,---,0.01,VWS V14.01,2013-10-06 15:53:00,
2013-10-06 11:58:00,65.0,64.4,30.10,NE,40,0.0,2.0,98,0.00,,---,0.01,VWS V14.01,2013-10-06 15:58:00,
2013-10-06 12:00:00,65.0,64.4,30.10,NE,40,0.0,2.0,98,0.00,,---,0.01,VWS V14.01,2013-10-06 16:00:00,
2013-10-06 12:03:00,65.1,64.5,30.10,NE,39,0.0,0.0,98,0.00,,---,0.01,VWS V14.01,2013-10-06 16:03:00,
2013-10-06 12:08:00,65.1,64.5,30.10,NE,40,0.0,0.0,98,0.01,,---,0.02,VWS V14.01,2013-10-06 16:08:00,
2013-10-06 12:13:00,65.1,64.5,30.10,North,6,0.0,2.0,98,0.01,,---,0.02,VWS V14.01,2013-10-06 16:13:00,
2013-10-06 12:18:00,65.1,64.5,30.10,NE,43,0.0,2.0,98,0.01,,---,0.02,VWS V14.01,2013-10-06 16:18:00,
2013-10-06 12:23:00,65.2,64.6,30.10,NNE,27,0.0,2.0,98,0.01,,---,0.02,VWS V14.01,2013-10-06 16:23:00,
2013-10-06 12:28:00,65.2,64.6,30.10,NNE,28,0.0,2.0,98,0.01,,---,0.02,VWS V14.01,2013-10-06 16:28:00,
2013-10-06 12:30:00,65.2,64.6,30.10,NNE,28,0.0,2.0,98,0.01,,---,0.02,VWS V14.01,2013-10-06 16:30:00,
2013-10-06 12:33:00,65.3,64.7,30.10,NNE,28,0.0,0.0,98,0.01,,---,0.02,VWS V14.01,2013-10-06 16:33:00,
2013-10-06 12:38:00,65.3,64.7,30.10,NNE,28,0.0,0.0,98,0.01,,---,0.02,VWS V14.01,2013-10-06 16:38:00,
2013-10-06 12:43:00,65.4,64.8,30.10,North,354,0.0,1.0,98,0.01,,---,0.02,VWS V14.01,2013-10-06 16:43:00,
2013-10-06 12:48:00,65.4,64.8,30.09,NNE,18,1.0,1.0,98,0.01,,---,0.02,VWS V14.01,2013-10-06 16:48:00,
2013-10-06 12:53:00,65.4,64.8,30.09,NNE,18,0.0,2.0,98,0.01,,---,0.02,VWS V14.01,2013-10-06 16:53:00,
2013-10-06 12:58:00,65.4,64.8,30.09,NE,55,0.0,2.0,98,0.01,,---,0.02,VWS V14.01,2013-10-06 16:58:00,
2013-10-06 13:00:00,65.4,64.8,30.09,NE,55,0.0,2.0,98,0.01,,---,0.02,VWS V14.01,2013-10-06 17:00:00,
2013-10-06 13:03:00,65.4,64.8,30.09,NE,56,0.0,0.0,98,0.01,,---,0.02,VWS V14.01,2013-10-06 17:03:00,
2013-10-06 13:08:00,65.5,64.9,30.09,NE,50,0.0,1.0,98,0.01,,---,0.02,VWS V14.01,2013-10-06 17:08:00,
2013-10-06 13:13:00,65.5,64.9,30.09,NNE,15,0.0,1.0,98,0.01,,---,0.02,VWS V14.01,2013-10-06 17:13:00,
2013-10-06 13:18:00,65.5,64.9,30.08,NNE,30,0.0,2.0,98,0.01,,---,0.02,VWS V14.01,2013-10-06 17:18:00,
2013-10-06 13:23:00,65.6,65.0,30.08,NNE,30,0.0,2.0,98,0.01,,---,0.02,VWS V14.01,2013-10-06 17:23:00,
2013-10-06 13:28:00,65.6,65.0,30.08,NNE,30,0.0,2.0,98,0.01,,---,0.02,VWS V14.01,2013-10-06 17:28:00,
2013-10-06 13:30:00,65.6,65.0,30.08,NNE,30,0.0,2.0,98,0.01,,---,0.02,VWS V14.01,2013-10-06 17:30:00,
2013-10-06 13:33:00,65.7,65.1,30.08,NNE,30,0.0,0.0,98,0.00,,---,0.02,VWS V14.01,2013-10-06 17:33:00,
2013-10-06 13:38:00,65.7,65.1,30.08,NNE,30,0.0,0.0,98,0.00,,---,0.02,VWS V14.01,2013-10-06 17:38:00,
2013-10-06 13:43:00,65.8,65.2,30.08,NNE,30,0.0,0.0,98,0.01,,---,0.03,VWS V14.01,2013-10-06 17:43:00,
2013-10-06 13:48:00,65.8,65.2,30.08,SSW,198,0.0,3.0,98,0.01,,---,0.03,VWS V14.01,2013-10-06 17:48:00,
2013-10-06 13:53:00,65.7,65.1,30.07,NNE,26,4.0,4.0,98,0.01,,---,0.03,VWS V14.01,2013-10-06 17:53:00,
2013-10-06 13:58:00,65.8,65.2,30.08,ENE,71,0.0,4.0,98,0.01,,---,0.03,VWS V14.01,2013-10-06 17:58:00,
2013-10-06 14:00:00,65.8,65.2,30.08,NNE,18,0.0,4.0,98,0.01,,---,0.03,VWS V14.01,2013-10-06 18:00:00,
2013-10-06 14:03:00,65.8,65.2,30.07,NNE,18,0.0,0.0,98,0.01,,---,0.03,VWS V14.01,2013-10-06 18:03:00,
2013-10-06 14:08:00,65.9,65.3,30.07,NNE,18,0.0,0.0,98,0.01,,---,0.03,VWS V14.01,2013-10-06 18:08:00,
2013-10-06 14:13:00,65.8,65.2,30.07,NNE,18,0.0,0.0,98,0.01,,---,0.03,VWS V14.01,2013-10-06 18:13:00,
2013-10-06 14:18:00,65.8,65.2,30.07,NNE,26,0.0,0.0,98,0.01,,---,0.03,VWS V14.01,2013-10-06 18:18:00,
2013-10-06 14:23:00,65.7,65.1,30.07,North,8,0.0,1.0,98,0.01,,---,0.03,VWS V14.01,2013-10-06 18:23:00,
2013-10-06 14:28:00,65.6,65.0,30.07,NE,43,0.0,3.0,98,0.01,,---,0.03,VWS V14.01,2013-10-06 18:28:00,
2013-10-06 14:30:00,65.6,65.0,30.07,NE,43,0.0,3.0,98,0.01,,---,0.03,VWS V14.01,2013-10-06 18:30:00,
2013-10-06 14:33:00,65.7,65.1,30.07,NE,43,0.0,0.0,98,0.01,,---,0.03,VWS V14.01,2013-10-06 18:33:00,
2013-10-06 14:38:00,65.8,65.2,30.07,NE,43,0.0,0.0,98,0.01,,---,0.03,VWS V14.01,2013-10-06 18:38:00,
2013-10-06 14:43:00,65.7,65.1,30.07,NNE,28,0.0,1.0,98,0.01,,---,0.03,VWS V14.01,2013-10-06 18:43:00,
2013-10-06 14:48:00,65.7,65.1,30.07,NNE,27,0.0,1.0,98,0.01,,---,0.03,VWS V14.01,2013-10-06 18:48:00,
2013-10-06 14:53:00,65.7,65.1,30.07,NNE,29,0.0,1.0,98,0.02,,---,0.04,VWS V14.01,2013-10-06 18:53:00,
2013-10-06 14:58:00,65.7,65.1,30.07,NNE,28,0.0,1.0,98,0.02,,---,0.04,VWS V14.01,2013-10-06 18:58:00,
2013-10-06 15:00:00,65.6,65.0,30.07,NE,55,0.0,1.0,98,0.02,,---,0.04,VWS V14.01,2013-10-06 19:00:00,
2013-10-06 15:03:00,65.6,65.0,30.07,East,83,1.0,1.0,98,0.01,,---,0.04,VWS V14.01,2013-10-06 19:03:00,
2013-10-06 15:08:00,65.4,64.8,30.07,ENE,63,1.0,2.0,98,0.01,,---,0.04,VWS V14.01,2013-10-06 19:08:00,
2013-10-06 15:13:00,65.4,64.8,30.07,East,87,1.0,2.0,98,0.01,,---,0.04,VWS V14.01,2013-10-06 19:13:00,
2013-10-06 15:18:00,65.3,64.7,30.07,ENE,75,1.0,2.0,98,0.01,,---,0.04,VWS V14.01,2013-10-06 19:18:00,
2013-10-06 15:23:00,65.2,64.6,30.07,East,90,0.0,2.0,98,0.01,,---,0.04,VWS V14.01,2013-10-06 19:23:00,
2013-10-06 15:28:00,65.3,64.7,30.07,East,96,0.0,2.0,98,0.01,,---,0.04,VWS V14.01,2013-10-06 19:28:00,
2013-10-06 15:30:00,65.3,64.7,30.07,East,96,0.0,2.0,98,0.01,,---,0.04,VWS V14.01,2013-10-06 19:30:00,
2013-10-06 15:33:00,65.3,64.7,30.07,East,94,1.0,1.0,98,0.01,,---,0.04,VWS V14.01,2013-10-06 19:33:00,
2013-10-06 15:38:00,65.2,64.6,30.07,NNE,18,1.0,1.0,98,0.01,,---,0.04,VWS V14.01,2013-10-06 19:38:00,
2013-10-06 15:43:00,65.0,64.4,30.07,ENE,75,0.0,1.0,98,0.01,,---,0.04,VWS V14.01,2013-10-06 19:43:00,
2013-10-06 15:48:00,65.0,64.4,30.07,ENE,72,0.0,1.0,98,0.01,,---,0.04,VWS V14.01,2013-10-06 19:48:00,
2013-10-06 15:53:00,65.0,64.4,30.07,ENE,72,0.0,1.0,98,0.01,,---,0.04,VWS V14.01,2013-10-06 19:53:00,
2013-10-06 15:58:00,64.9,64.3,30.07,NE,51,0.0,1.0,98,0.02,,---,0.05,VWS V14.01,2013-10-06 19:58:00,
2013-10-06 16:00:00,64.9,64.3,30.07,North,356,1.0,1.0,98,0.02,,---,0.05,VWS V14.01,2013-10-06 20:00:00,
2013-10-06 16:03:00,64.9,64.3,30.07,ENE,77,0.0,1.0,98,0.01,,---,0.05,VWS V14.01,2013-10-06 20:03:00,
2013-10-06 16:08:00,64.9,64.3,30.07,ENE,76,0.0,1.0,98,0.01,,---,0.05,VWS V14.01,2013-10-06 20:08:00,
2013-10-06 16:13:00,64.9,64.3,30.07,ENE,67,0.0,3.0,98,0.01,,---,0.05,VWS V14.01,2013-10-06 20:13:00,
2013-10-06 16:18:00,64.8,64.2,30.07,ENE,66,0.0,3.0,98,0.01,,---,0.05,VWS V14.01,2013-10-06 20:18:00,
2013-10-06 16:23:00,64.9,64.3,30.07,ENE,66,0.0,3.0,98,0.01,,---,0.05,VWS V14.01,2013-10-06 20:23:00,
2013-10-06 16:28:00,64.9,64.3,30.07,ENE,66,0.0,3.0,98,0.01,,---,0.05,VWS V14.01,2013-10-06 20:28:00,
2013-10-06 16:30:00,64.9,64.3,30.07,ENE,67,0.0,3.0,98,0.01,,---,0.05,VWS V14.01,2013-10-06 20:30:00,
2013-10-06 16:33:00,64.8,64.2,30.07,North,354,0.0,0.0,98,0.01,,---,0.05,VWS V14.01,2013-10-06 20:33:00,
2013-10-06 16:38:00,64.8,64.2,30.07,North,9,0.0,0.0,98,0.02,,---,0.06,VWS V14.01,2013-10-06 20:38:00,
2013-10-06 16:43:00,64.7,64.1,30.07,ENE,72,0.0,2.0,98,0.03,,---,0.07,VWS V14.01,2013-10-06 20:43:00,
2013-10-06 16:48:00,64.7,64.1,30.07,NNE,30,0.0,2.0,98,0.03,,---,0.07,VWS V14.01,2013-10-06 20:48:00,
2013-10-06 16:53:00,64.7,64.1,30.07,ENE,61,0.0,2.0,98,0.03,,---,0.07,VWS V14.01,2013-10-06 20:53:00,
2013-10-06 16:58:00,64.7,64.1,30.07,ENE,61,0.0,2.0,98,0.03,,---,0.07,VWS V14.01,2013-10-06 20:58:00,
2013-10-06 17:00:00,64.7,64.1,30.06,ENE,65,0.0,2.0,98,0.03,,---,0.07,VWS V14.01,2013-10-06 21:00:00,
2013-10-06 17:03:00,64.7,64.1,30.06,ENE,71,0.0,1.0,98,0.02,,---,0.07,VWS V14.01,2013-10-06 21:03:00,
2013-10-06 17:08:00,64.6,64.0,30.06,ENE,71,0.0,1.0,98,0.02,,---,0.07,VWS V14.01,2013-10-06 21:08:00,
2013-10-06 17:13:00,64.6,64.0,30.07,ENE,70,0.0,1.0,98,0.02,,---,0.07,VWS V14.01,2013-10-06 21:13:00,
2013-10-06 17:18:00,64.6,64.0,30.07,ENE,71,0.0,1.0,98,0.02,,---,0.07,VWS V14.01,2013-10-06 21:18:00,
2013-10-06 17:23:00,64.5,63.9,30.07,ENE,71,0.0,1.0,98,0.02,,---,0.07,VWS V14.01,2013-10-06 21:23:00,
2013-10-06 17:28:00,64.4,63.8,30.07,ENE,59,2.0,2.0,98,0.02,,---,0.07,VWS V14.01,2013-10-06 21:28:00,
2013-10-06 17:30:00,64.4,63.8,30.07,ENE,64,0.0,2.0,98,0.02,,---,0.07,VWS V14.01,2013-10-06 21:30:00,
2013-10-06 17:33:00,64.4,63.8,30.07,ENE,63,0.0,0.0,98,0.02,,---,0.07,VWS V14.01,2013-10-06 21:33:00,
2013-10-06 17:38:00,64.4,63.8,30.07,NE,43,0.0,1.0,98,0.02,,---,0.07,VWS V14.01,2013-10-06 21:38:00,
2013-10-06 17:43:00,64.3,63.7,30.07,ENE,75,0.0,2.0,98,0.02,,---,0.07,VWS V14.01,2013-10-06 21:43:00,
2013-10-06 17:48:00,64.2,63.6,30.07,ENE,63,1.0,2.0,98,0.02,,---,0.07,VWS V14.01,2013-10-06 21:48:00,
2013-10-06 17:53:00,64.2,63.6,30.07,NE,56,1.0,2.0,98,0.02,,---,0.07,VWS V14.01,2013-10-06 21:53:00,
2013-10-06 17:58:00,64.2,63.6,30.07,NE,45,0.0,2.0,98,0.02,,---,0.07,VWS V14.01,2013-10-06 21:58:00,
2013-10-06 18:00:00,64.1,63.5,30.07,NE,45,0.0,2.0,98,0.02,,---,0.07,VWS V14.01,2013-10-06 22:00:00,
2013-10-06 18:03:00,64.2,63.6,30.07,NE,45,0.0,0.0,98,0.00,,---,0.07,VWS V14.01,2013-10-06 22:03:00,
2013-10-06 18:08:00,64.1,63.5,30.07,ENE,68,1.0,2.0,98,0.00,,---,0.07,VWS V14.01,2013-10-06 22:08:00,
2013-10-06 18:13:00,64.1,63.5,30.07,ENE,68,0.0,2.0,98,0.00,,---,0.07,VWS V14.01,2013-10-06 22:13:00,
2013-10-06 18:18:00,64.0,63.4,30.07,NE,48,0.0,2.0,98,0.00,,---,0.07,VWS V14.01,2013-10-06 22:18:00,
2013-10-06 18:23:00,64.0,63.7,30.07,NE,49,0.0,2.0,99,0.00,,---,0.07,VWS V14.01,2013-10-06 22:23:00,
2013-10-06 18:28:00,64.0,63.4,30.07,NE,48,0.0,2.0,98,0.00,,---,0.07,VWS V14.01,2013-10-06 22:28:00,
2013-10-06 18:30:00,64.0,63.4,30.07,NE,49,0.0,2.0,98,0.00,,---,0.07,VWS V14.01,2013-10-06 22:30:00,
2013-10-06 18:33:00,64.0,63.4,30.07,NE,48,0.0,0.0,98,0.00,,---,0.07,VWS V14.01,2013-10-06 22:33:00,
2013-10-06 18:38:00,64.1,63.8,30.07,NE,48,0.0,0.0,99,0.00,,---,0.07,VWS V14.01,2013-10-06 22:38:00,
2013-10-06 18:43:00,64.1,63.8,30.07,NE,48,0.0,0.0,99,0.01,,---,0.08,VWS V14.01,2013-10-06 22:43:00,
2013-10-06 18:48:00,64.1,63.8,30.07,NE,49,0.0,0.0,99,0.01,,---,0.08,VWS V14.01,2013-10-06 22:48:00,
2013-10-06 18:53:00,64.1,63.8,30.07,NE,49,0.0,0.0,99,0.01,,---,0.08,VWS V14.01,2013-10-06 22:53:00,
2013-10-06 18:58:00,64.1,63.8,30.07,NE,48,0.0,0.0,99,0.01,,---,0.08,VWS V14.01,2013-10-06 22:58:00,
2013-10-06 19:00:00,64.1,63.8,30.07,NE,49,0.0,0.0,99,0.01,,---,0.08,VWS V14.01,2013-10-06 23:00:00,
2013-10-06 19:03:00,64.1,63.8,30.07,NE,49,0.0,0.0,99,0.01,,---,0.08,VWS V14.01,2013-10-06 23:03:00,
2013-10-06 19:08:00,64.1,63.8,30.07,NE,48,0.0,0.0,99,0.01,,---,0.08,VWS V14.01,2013-10-06 23:08:00,
2013-10-06 19:13:00,64.1,63.8,30.07,NE,49,0.0,0.0,99,0.01,,---,0.08,VWS V14.01,2013-10-06 23:13:00,
2013-10-06 19:18:00,64.1,63.8,30.07,NNE,18,0.0,0.0,99,0.01,,---,0.08,VWS V14.01,2013-10-06 23:18:00,
2013-10-06 19:23:00,64.1,63.8,30.07,NNE,18,0.0,0.0,99,0.01,,---,0.08,VWS V14.01,2013-10-06 23:23:00,
2013-10-06 19:28:00,64.2,63.9,30.07,NNE,18,0.0,0.0,99,0.01,,---,0.08,VWS V14.01,2013-10-06 23:28:00,
2013-10-06 19:30:00,64.2,63.9,30.07,NNE,30,0.0,0.0,99,0.01,,---,0.08,VWS V14.01,2013-10-06 23:30:00,
2013-10-06 19:33:00,64.2,63.9,30.07,NNE,30,0.0,0.0,99,0.01,,---,0.08,VWS V14.01,2013-10-06 23:33:00,
2013-10-06 19:38:00,64.2,63.9,30.07,NNE,18,0.0,3.0,99,0.01,,---,0.08,VWS V14.01,2013-10-06 23:38:00,
2013-10-06 19:43:00,64.3,64.0,30.07,North,355,1.0,3.0,99,0.01,,---,0.08,VWS V14.01,2013-10-06 23:43:00,
2013-10-06 19:48:00,64.3,64.0,30.07,NNE,16,0.0,3.0,99,0.01,,---,0.08,VWS V14.01,2013-10-06 23:48:00,
2013-10-06 19:53:00,64.3,64.0,30.07,NE,46,0.0,3.0,99,0.01,,---,0.08,VWS V14.01,2013-10-06 23:53:00,
2013-10-06 19:58:00,64.3,64.0,30.06,NE,46,0.0,3.0,99,0.01,,---,0.08,VWS V14.01,2013-10-06 23:58:00,
2013-10-06 20:00:00,64.4,64.1,30.06,ENE,77,0.0,3.0,99,0.01,,---,0.08,VWS V14.01,2013-10-07 00:00:00,
2013-10-06 20:03:00,64.4,64.1,30.06,ENE,63,0.0,1.0,99,0.00,,---,0.08,VWS V14.01,2013-10-07 00:03:00,
2013-10-06 20:08:00,64.4,64.1,30.06,ENE,65,0.0,1.0,99,0.00,,---,0.08,VWS V14.01,2013-10-07 00:08:00,
2013-10-06 20:13:00,64.5,64.2,30.06,NE,49,1.0,1.0,99,0.00,,---,0.08,VWS V14.01,2013-10-07 00:13:00,
2013-10-06 20:18:00,64.5,64.2,30.06,NNE,20,0.0,2.0,99,0.00,,---,0.08,VWS V14.01,2013-10-07 00:18:00,
2013-10-06 20:23:00,64.5,64.2,30.06,NNE,23,0.0,2.0,99,0.00,,---,0.08,VWS V14.01,2013-10-07 00:23:00,
2013-10-06 20:28:00,64.5,64.2,30.07,NNE,23,1.0,2.0,99,0.00,,---,0.08,VWS V14.01,2013-10-07 00:28:00,
2013-10-06 20:30:00,64.5,64.2,30.07,NNE,23,0.0,2.0,99,0.00,,---,0.08,VWS V14.01,2013-10-07 00:30:00,
2013-10-06 20:33:00,64.5,64.2,30.07,NNE,23,0.0,0.0,99,0.00,,---,0.08,VWS V14.01,2013-10-07 00:33:00,
2013-10-06 20:38:00,64.6,64.3,30.06,NNE,23,0.0,1.0,99,0.00,,---,0.08,VWS V14.01,2013-10-07 00:38:00,
2013-10-06 20:43:00,64.6,64.3,30.06,NNE,22,0.0,1.0,99,0.00,,---,0.08,VWS V14.01,2013-10-07 00:43:00,
2013-10-06 20:48:00,64.6,64.3,30.06,North,355,0.0,1.0,99,0.00,,---,0.08,VWS V14.01,2013-10-07 00:48:00,
2013-10-06 20:53:00,64.7,64.4,30.06,North,357,0.0,1.0,99,0.00,,---,0.08,VWS V14.01,2013-10-07 00:53:00,
2013-10-06 20:58:00,64.7,64.4,30.06,NNE,27,0.0,2.0,99,0.00,,---,0.08,VWS V14.01,2013-10-07 00:58:00,
2013-10-06 21:00:00,64.7,64.4,30.06,NE,53,0.0,2.0,99,0.00,,---,0.08,VWS V14.01,2013-10-07 01:00:00,
2013-10-06 21:03:00,64.7,64.4,30.06,NE,53,0.0,0.0,99,0.00,,---,0.08,VWS V14.01,2013-10-07 01:03:00,
2013-10-06 21:08:00,64.7,64.4,30.06,NE,50,0.0,1.0,99,0.01,,---,0.09,VWS V14.01,2013-10-07 01:08:00,
2013-10-06 21:13:00,64.7,64.4,30.06,NE,50,0.0,1.0,99,0.01,,---,0.09,VWS V14.01,2013-10-07 01:13:00,
2013-10-06 21:18:00,64.8,64.5,30.06,NW,323,0.0,1.0,99,0.01,,---,0.09,VWS V14.01,2013-10-07 01:18:00,
2013-10-06 21:23:00,64.8,64.5,30.06,NW,323,0.0,1.0,99,0.01,,---,0.09,VWS V14.01,2013-10-07 01:23:00,
2013-10-06 21:28:00,64.9,64.6,30.06,NW,323,0.0,1.0,99,0.01,,---,0.09,VWS V14.01,2013-10-07 01:28:00,
2013-10-06 21:30:00,64.8,64.5,30.06,NW,323,0.0,1.0,99,0.01,,---,0.09,VWS V14.01,2013-10-07 01:30:00,
2013-10-06 21:33:00,64.9,64.6,30.06,NW,323,0.0,0.0,99,0.01,,---,0.09,VWS V14.01,2013-10-07 01:33:00,
2013-10-06 21:38:00,64.9,64.6,30.06,NW,323,0.0,0.0,99,0.01,,---,0.09,VWS V14.01,2013-10-07 01:38:00,
2013-10-06 21:43:00,64.9,64.6,30.06,NW,323,0.0,0.0,99,0.01,,---,0.09,VWS V14.01,2013-10-07 01:43:00,
2013-10-06 21:47:00,64.9,64.6,30.06,NW,323,0.0,0.0,99,0.01,,---,0.09,VWS V14.01,2013-10-07 01:47:00,
2013-10-06 21:52:00,64.9,64.6,30.06,NW,323,0.0,0.0,99,0.01,,---,0.09,VWS V14.01,2013-10-07 01:52:00,
2013-10-06 21:58:00,64.9,64.6,30.06,NW,323,0.0,0.0,99,0.01,,---,0.09,VWS V14.01,2013-10-07 01:58:00,
2013-10-06 22:00:00,65.0,64.7,30.06,NW,323,0.0,0.0,99,0.01,,---,0.09,VWS V14.01,2013-10-07 02:00:00,
2013-10-06 22:03:00,64.9,64.6,30.06,NW,323,0.0,0.0,99,0.01,,---,0.09,VWS V14.01,2013-10-07 02:03:00,
2013-10-06 22:08:00,65.0,64.7,30.06,NW,323,0.0,0.0,99,0.01,,---,0.09,VWS V14.01,2013-10-07 02:08:00,
2013-10-06 22:13:00,65.0,64.7,30.06,NW,323,0.0,0.0,99,0.01,,---,0.09,VWS V14.01,2013-10-07 02:13:00,
2013-10-06 22:18:00,65.0,64.7,30.06,NW,323,0.0,0.0,99,0.01,,---,0.09,VWS V14.01,2013-10-07 02:18:00,
2013-10-06 22:23:00,65.1,64.8,30.05,NW,323,0.0,0.0,99,0.01,,---,0.09,VWS V14.01,2013-10-07 02:23:00,
2013-10-06 22:28:00,65.1,64.8,30.06,NW,323,0.0,0.0,99,0.01,,---,0.09,VWS V14.01,2013-10-07 02:28:00,
2013-10-06 22:30:00,65.1,64.8,30.06,NW,323,0.0,0.0,99,0.01,,---,0.09,VWS V14.01,2013-10-07 02:30:00,
2013-10-06 22:33:00,65.2,64.9,30.05,NNW,335,0.0,0.0,99,0.00,,---,0.09,VWS V14.01,2013-10-07 02:33:00,
2013-10-06 22:38:00,65.2,64.9,30.05,NNW,336,0.0,0.0,99,0.00,,---,0.09,VWS V14.01,2013-10-07 02:38:00,
2013-10-06 22:42:00,65.2,64.9,30.05,NNW,341,0.0,0.0,99,0.00,,---,0.09,VWS V14.01,2013-10-07 02:42:00,
2013-10-06 22:47:00,65.2,64.9,30.05,NNW,347,0.0,1.0,99,0.00,,---,0.09,VWS V14.01,2013-10-07 02:47:00,
2013-10-06 22:52:00,65.3,65.0,30.05,North,4,0.0,1.0,99,0.00,,---,0.09,VWS V14.01,2013-10-07 02:52:00,
2013-10-06 22:57:00,65.3,65.0,30.05,North,3,0.0,1.0,99,0.00,,---,0.09,VWS V14.01,2013-10-07 02:57:00,
2013-10-06 23:00:00,65.4,65.1,30.05,North,4,0.0,1.0,99,0.00,,---,0.09,VWS V14.01,2013-10-07 03:00:00,
2013-10-06 23:02:00,65.4,65.1,30.05,North,3,0.0,0.0,99,0.00,,---,0.09,VWS V14.01,2013-10-07 03:02:00,
2013-10-06 23:07:00,65.4,65.1,30.05,North,4,0.0,0.0,99,0.00,,---,0.09,VWS V14.01,2013-10-07 03:07:00,
2013-10-06 23:12:00,65.5,65.2,30.05,NE,43,0.0,0.0,99,0.00,,---,0.09,VWS V14.01,2013-10-07 03:12:00,
2013-10-06 23:17:00,65.6,65.3,30.05,NE,42,0.0,0.0,99,0.00,,---,0.09,VWS V14.01,2013-10-07 03:17:00,
2013-10-06 23:22:00,65.6,65.3,30.05,NE,43,0.0,0.0,99,0.00,,---,0.09,VWS V14.01,2013-10-07 03:22:00,
2013-10-06 23:27:00,65.6,65.3,30.04,NE,43,0.0,0.0,99,0.00,,---,0.09,VWS V14.01,2013-10-07 03:27:00,
2013-10-06 23:30:00,65.6,65.3,30.04,NE,46,0.0,0.0,99,0.00,,---,0.09,VWS V14.01,2013-10-07 03:30:00,
2013-10-06 23:32:00,65.7,65.4,30.04,NE,46,0.0,0.0,99,0.00,,---,0.09,VWS V14.01,2013-10-07 03:32:00,
2013-10-06 23:37:00,65.6,65.3,30.04,NE,44,0.0,0.0,99,0.00,,---,0.09,VWS V14.01,2013-10-07 03:37:00,
2013-10-06 23:42:00,65.7,65.4,30.04,NE,44,0.0,0.0,99,0.00,,---,0.09,VWS V14.01,2013-10-07 03:42:00,
2013-10-06 23:47:00,65.7,65.4,30.04,NE,44,0.0,0.0,99,0.00,,---,0.09,VWS V14.01,2013-10-07 03:47:00,
2013-10-06 23:52:00,65.7,65.4,30.04,NE,44,0.0,0.0,99,0.00,,---,0.09,VWS V14.01,2013-10-07 03:52:00,
2013-10-06 23:57:00,65.8,65.5,30.03,North,359,0.0,2.0,99,0.00,,---,0.09,VWS V14.01,2013-10-07 03:57:00,